Tracking 30995 objects as of 5-Jul-2025
HD Live streaming from Space Station
objects crossing your sky now

COSMOS 1299 FUEL CORE

Track COSMOS 1299 FUEL CORE now!
10-day predictions


NORAD ID: 12808
Int'l Code: 1981-081C
Perigee: 913.2 km
Apogee: 967.8 km
Inclination: 65.1 °
Period: 103.7 minutes
Semi major axis: 7311 km
RCS: 0.1748 m2 (medium)
Launch date: August 24, 1981
Source: Commonwealth of Independent States (former USSR) (CIS)
Launch site: TYURATAM MISSILE AND SPACE COMPLEX (TTMTR)

Note: This is SATELLITE DEBRIS
Your satellite tracking list
COSMOS 2369
Track 1 satellite(s)




NASA's NSSDC Master Catalog

Two Line Element Set (TLE):
1 12808U 81081C   25185.95183650 -.00000079  00000-0  83643-5 0  9991
2 12808  65.1167  27.6095 0037355 257.1698 213.0078 13.88651450224153
Source of the keplerian elements: AFSPC